カタログに戻る

STARLINK-5820

運用中通信VLEO
NORAD 55781·PAYLOAD·🇺🇸 United States

打ち上げ Mar 3, 2023 から Vandenberg Space Force Base

Loading…

次のパス (今後24時間)

TLE

最新Source: CelesTrak SupGP

元期: Sep 14, 2026, 22:22 UTC

1 55781C 23028AS  26257.93243056 -.00004505  00000+0 -37752-3 0  2574
2 55781  70.0002 107.2492 0002753 270.1283  37.3050 14.98335817    10

AllMySatでSTARLINK-5820をリアルタイム追跡

Download on the App Store